Showing default

TRANSIT 5E 3, 705

Orbit data source: Space-Track

TRANSIT 5E 3, 705 is a payload satellite owned by USN BuWeps (US) in LEO that was launched on Thu, 05 Dec 1963 UTC via a THOR ABLESTAR launch vehicle from the Air Force Western Test Range (AFWTR). Payload-class satellites include a variety of spacecraft equipped with specific instruments for various scientific and technological missions. These include communications satellites like Starlink; space stations such as the ISS; scientific satellites like the Hubble; Earth observation satellites from companies like Planet Labs, Umbra, and HawkEye 360; GPS; miniature CubeSats for education and research; and military/defense satellites.

Loading next visibility...
Identifier
705, 1963-049C
Orbit
LEO
Last TLE update
1 day ago
Origin
Manufacturer
APL
Mission
Civil Science
Bus & Motor
TRANSIT 5, Unknown motor
Mass
52 kg wet, 52 kg dry
Launch date (UTC)
1963-12-05 (62 years ago)
Launch vehicle
THOR ABLESTAR
Launch site
Air Force Western Test Range (AFWTR)
Object type
Payload
Rocket body
Debris
Shape & HBR
Oct Cyl + 4 Pan, 3 m
Radar Cross Section
0.892 m², Large (>1 m²)

Expand to show TLE details & history

TLE from 1 day ago
0 TRANSIT 5E 3
1 00705U 63049C   25181.74744884  .00000074  00000-0  10471-3 0  9994
2 00705  89.9190  73.2761 0033393 183.0079 238.9645 13.47620639 24762
Epoch: 2025-06-30T17:56Z
TLE epoch observation values (Epoch: 2025-06-30T17:56:19.579Z)
Latitude
61.73226°
Longitude
-114.70843°
Altitude
1,104.581 km
Speed
7.299 km/s
True Right ascension
04h 53m 42s
True Declination
61° 35' 43"
Sunlit
Object was in daylight at epoch
Visualization orbit readout
Latitude
-64.57359°
Longitude
65.30306°
Altitude
1,094.864 km
Speed
7.309 km/s
Apparent Right ascension
17h 21m 42s
Apparent Declination
-53° 12' 26"
Sunlit
Object is in full shadow
Visualization observer readout
Local Sidereal Time
05:40:02
Azimuth
168.305° S
Elevation
-76.348°
Doppler factor
1
Orbital elements
Apogee altitude
1,102.977 km
Perigee altitude
1,053.18 km
Semi-major axis
7,456.216 km
Eccentricity
0.00334
Inclination
89.919°
RAAN
73.2761°
Arg. of periapsis
183.0079°
True anomaly
Unknown
Mean anomaly
238.9645°
Eccentric anomaly
Unknown
Mean motion
3.37105 °/min
Orbital period
106.79 mins
BSTAR
0.00010471
Loading maneuver chart data...
Loading SW <> Apogee altitude chart data...
Loading historical data...
Loading historical data...
Loading historical data...
Loading historical data...
Loading historical data...
Loading historical data...
Loading historical data...

TRANSIT 5E 3 Visibility forecast

Observer location: undefined°, undefined°

Span
Click to sort rows by Start time (UTC) header in descending order
Start Az.
Max El. time (UTC)
Max El. Az.
Max El.
End time (UTC)
End Az.
8 mins2025-07-01 18:43:20.493Z245.529° WSW2025-07-01 18:47:20.493Z284.501° WNW17.2°2025-07-01 18:51:20.493Z322.038° NNW
10 mins2025-07-02 04:06:20.493Z28.536° NE2025-07-02 04:11:20.493Z90.114° ESE27.391°2025-07-02 04:16:20.493Z142.737° SSE
10 mins2025-07-02 05:53:20.493Z339.326° N2025-07-02 05:57:20.493Z287.325° WNW32.705°2025-07-02 06:03:20.493Z215.156° SW
9 mins2025-07-02 16:06:20.493Z126.11° SE2025-07-02 16:10:20.493Z74.882° E28.367°2025-07-02 16:15:20.493Z20.351° NNE
8 mins2025-07-02 17:52:20.493Z214.993° SW2025-07-02 17:56:20.493Z267.171° W33.002°2025-07-02 18:00:20.493Z329.135° NNW
|